Palma de Mallorca, Spain

2:45 AM CEST on August 20, 2017 (GMT +0200)
Palma De Mallorca

Weather History for LEPA - July, 2013

Change the Weather History Date:

Sunday, July 7, 2013

  Actual Average Record
Temperature  
Mean Temperature 74 °F -  
Max Temperature 89 °F 85 °F 104 °F (2017)
Min Temperature 60 °F 64 °F 55 °F (1997)
Cooling Degree Days 10    
Growing Degree Days 24 (Base 50)    
Moisture  
Dew Point 62 °F    
Average Humidity 61    
Maximum Humidity 88    
Minimum Humidity 23    
Precipitation  
Precipitation 0.00 in 0.02 in - ()
Sea Level Pressure  
Sea Level Pressure 30.14 in    
Wind  
Wind Speed 3 mph ()    
Max Wind Speed 14 mph    
Max Gust Speed -    
Visibility 9.2 miles    
Events      
Averages and records for this station are not official NWS values.
T = Trace of Precipitation, MM = Missing Value Source: Averaged Metar Reports

Daily Weather History Graph

Daily Weather History Graph

Search for Another Location

Airport or City:

Trip Planner

Search our weather history database for the weather conditions in past years. The results will help you decide how hot, cold, wet, or windy it might be!

Date:

Astronomy

Jul. 07, 2013 Rise Set
Actual Time 6:28 AM CEST 9:19 PM CEST
Civil Twilight 5:56 AM CEST 9:51 PM CEST
Nautical Twilight 5:16 AM CEST 10:31 PM CEST
Astronomical Twilight 4:29 AM CEST 11:17 PM CEST
Moon 5:51 AM CEST (7/7) 8:32 PM CEST (7/7)
Length of Visible Light 15h 54m
Length of Day
14h 50m
Waning Crescent, 1% of the Moon is Illuminated
Jul 7
Waning Crescent
Jul 8
New
Jul 16
First Quarter
Jul 22
Full
Jul 29
Last Quarter

Hourly Weather History & Observations

Time (CEST) Temp. Heat Index Dew Point Humidity Pressure Visibility Wind Dir Wind Speed Gust Speed Precip Events Conditions
12:00 AM 69.8 °F - 60.8 °F 73% 30.18 in - ENE 1.2 mph - N/A   Clear
12:30 AM 69.8 °F - 60.8 °F 73% 30.18 in - NE 1.2 mph - N/A   Clear
1:00 AM 68.0 °F - 60.8 °F 78% 30.18 in - Variable 2.3 mph - N/A   Clear
1:30 AM 68.0 °F - 60.8 °F 78% 30.18 in - ENE 4.6 mph - N/A   Clear
2:00 AM 67 °F - 59 °F 70% 30.19 in 16 mi Calm Calm - -  
2:00 AM 68.0 °F - 60.8 °F 78% 30.18 in - NNE 1.2 mph - N/A   Clear
2:30 AM 68.0 °F - 60.8 °F 78% 30.18 in - Calm Calm - N/A   Clear
3:00 AM 66.2 °F - 59.0 °F 78% 30.18 in - Calm Calm - N/A   Clear
3:30 AM 64.4 °F - 59.0 °F 83% 30.15 in - Calm Calm - N/A   Clear
4:00 AM 62.6 °F - 59.0 °F 88% 30.15 in - NE 1.2 mph - N/A   Clear
4:30 AM 62.6 °F - 59.0 °F 88% 30.15 in - Calm Calm - N/A   Clear
5:00 AM 62.6 °F - 59.0 °F 88% 30.15 in - ENE 2.3 mph - N/A   Clear
5:30 AM 62.6 °F - 59.0 °F 88% 30.15 in - Calm Calm - N/A   Clear
6:00 AM 60.8 °F - 57.2 °F 88% 30.15 in - NE 1.2 mph - N/A   Clear
6:30 AM 60.8 °F - 57.2 °F 88% 30.15 in - Calm Calm - N/A   Clear
7:00 AM 62.6 °F - 59.0 °F 88% 30.15 in - ENE 1.2 mph - N/A   Clear
7:30 AM 64.4 °F - 59.0 °F 83% 30.15 in - Calm Calm - N/A   Clear
8:00 AM 67 °F - 61 °F 75% 30.17 in 16 mi Calm Calm - -  
8:00 AM 68.0 °F - 62.6 °F 83% 30.15 in - Calm Calm - N/A   Clear
8:30 AM 73.4 °F - 64.4 °F 73% 30.15 in - Calm Calm - N/A   Clear
9:00 AM 77.0 °F - 66.2 °F 69% 30.15 in - Calm Calm - N/A   Clear
9:30 AM 80.6 °F 82.3 °F 64.4 °F 58% 30.15 in - Calm Calm - N/A   Clear
10:00 AM 82.4 °F 82.9 °F 60.8 °F 48% 30.15 in - Calm Calm - N/A   Clear
10:30 AM 84.2 °F 84.4 °F 60.8 °F 45% 30.15 in - Calm Calm - N/A   Clear
11:00 AM 86.0 °F 86.1 °F 60.8 °F 43% 30.15 in - Variable 2.3 mph - N/A   Clear
11:30 AM 86.0 °F 86.6 °F 62.6 °F 45% 30.15 in - SW 6.9 mph - N/A   Clear
12:00 PM 84.2 °F 86.6 °F 66.2 °F 55% 30.15 in - WSW 10.4 mph - N/A   Clear
12:30 PM 84.2 °F 83.8 °F 59.0 °F 42% 30.15 in - SW 10.4 mph - N/A   Clear
1:00 PM 86.0 °F 84.9 °F 57.2 °F 37% 30.15 in - SW 11.5 mph - N/A   Clear
1:30 PM 86.0 °F 86.6 °F 62.6 °F 45% 30.15 in - SW 12.7 mph - N/A   Clear
2:00 PM 86 °F - 64 °F 37% 30.16 in 19 mi SSW 13.8 mph - -   Scattered Clouds
2:00 PM 86.0 °F 87.3 °F 64.4 °F 48% 30.15 in 6.2 mi SW 12.7 mph - N/A   Partly Cloudy
2:30 PM 86.0 °F 89.4 °F 68.0 °F 55% 30.15 in 6.2 mi SW 11.5 mph - N/A   Partly Cloudy
3:00 PM 86.0 °F 87.3 °F 64.4 °F 48% 30.12 in 6.2 mi SW 11.5 mph - N/A   Partly Cloudy
3:30 PM 87.8 °F 89.4 °F 64.4 °F 46% 30.12 in 6.2 mi SW 12.7 mph - N/A   Partly Cloudy
4:00 PM 86.0 °F 86.6 °F 62.6 °F 45% 30.12 in 6.2 mi SW 12.7 mph - N/A   Partly Cloudy
4:30 PM 87.8 °F 88.5 °F 62.6 °F 43% 30.12 in 6.2 mi SSW 12.7 mph - N/A   Partly Cloudy
5:00 PM 87.8 °F 86.5 °F 57.2 °F 35% 30.12 in 6.2 mi SW 11.5 mph - N/A   Partly Cloudy
5:30 PM 87.8 °F 87.6 °F 60.8 °F 40% 30.12 in 6.2 mi SW 10.4 mph - N/A   Partly Cloudy
6:00 PM 89.6 °F 88.9 °F 59.0 °F 36% 30.12 in 6.2 mi SW 11.5 mph - N/A   Partly Cloudy
6:30 PM 89.6 °F 87.3 °F 53.6 °F 29% 30.12 in 6.2 mi SW 10.4 mph - N/A   Partly Cloudy
7:00 PM 86.0 °F 86.1 °F 60.8 °F 43% 30.09 in - SW 8.1 mph - N/A   Clear
7:30 PM 86.0 °F 86.1 °F 60.8 °F 43% 30.09 in 6.2 mi SW 6.9 mph - N/A   Partly Cloudy
8:00 PM 87 °F - 55 °F 23% 30.12 in 19 mi SW 5.8 mph - -  
8:00 PM 86.0 °F 84.2 °F 53.6 °F 33% 30.09 in - SW 4.6 mph - N/A   Clear
8:30 PM 84.2 °F 85.6 °F 64.4 °F 51% 30.12 in - SW 3.5 mph - N/A   Clear
9:00 PM 82.4 °F 84.6 °F 66.2 °F 58% 30.12 in - WSW 2.3 mph - N/A   Clear
9:30 PM 78.8 °F - 69.8 °F 74% 30.12 in - WSW 1.2 mph - N/A   Clear
10:00 PM 77.0 °F - 69.8 °F 78% 30.12 in - Variable 2.3 mph - N/A   Clear
10:30 PM 77.0 °F - 69.8 °F 78% 30.12 in - North 3.5 mph - N/A   Clear
11:00 PM 77.0 °F - 68.0 °F 74% 30.15 in - Calm Calm - N/A   Clear
11:30 PM 77.0 °F - 64.4 °F 65% 30.15 in - ENE 2.3 mph - N/A   Clear